DW1437 Weather Reports


time (UTC)temp
C
wind
direction
speed
KPH
gust
KPH
rain 1hr
cm
rain 24hr
cm
rain mn
cm
humidity
%
barometer
mb
20260504100132 12 37 1.6 6.4 0.00 0.74 0.00 92 1014.7
20260504090121 11 32 0.0 1.6 0.00 0.74 0.00 93 1014.5
20260504045800 10 47 0.0 0.0 0.00 0.74 0.00 95 1012.5
20260504044825 10 48 0.0 3.2 0.00 0.74 0.00 95 1012.5
20260504042721 10 41 0.0 0.0 0.00 0.74 0.00 95 1012.6
20260504041732 10 32 0.0 0.0 0.00 0.74 0.00 95 1012.5
20260504040738 10 30 0.0 0.0 0.00 0.74 0.00 95 1012.5
20260504035704 10 31 0.0 0.0 0.00 0.74 0.00 95 1012.3
20260504034634 10 31 0.0 0.0 0.00 0.74 0.00 95 1012.4
20260504033601 10 31 0.0 0.0 0.00 0.74 0.00 95 1012.3
20260504032616 10 31 0.0 0.0 0.00 0.74 0.00 95 1012.2
20260504031618 10 31 0.0 0.0 0.00 0.74 0.00 95 1012.1
20260504030547 10 31 0.0 0.0 0.00 0.74 0.00 95 1012.2
20260504025514 10 31 0.0 0.0 0.00 0.74 0.00 95 1012.2
20260504024513 10 36 0.0 0.0 0.00 0.74 0.00 95 1012.0
20260504023447 11 34 0.0 0.0 0.00 0.74 0.00 95 1011.9
20260504022419 11 34 0.0 0.0 0.00 0.74 0.00 95 1011.9
20260504021355 11 34 0.0 0.0 0.00 0.74 0.00 95 1011.9
20260504020334 11 34 0.0 0.0 0.00 0.74 0.00 94 1011.9
20260504015305 11 45 0.0 0.0 0.00 0.74 0.00 95 1011.8
20260504013148 11 26 0.0 0.0 0.00 0.74 0.00 95 1012.0
20260504012213 11 26 0.0 0.0 0.00 0.74 0.00 94 1011.9
20260504011235 11 26 0.0 0.0 0.00 0.74 0.00 94 1011.9
20260504010212 11 28 0.0 0.0 0.00 0.74 0.00 94 1011.9
20260504005214 11 28 0.0 0.0 0.00 0.74 0.00 94 1011.8
20260504004230 11 28 0.0 1.6 0.00 0.74 0.00 94 1011.8
20260504003204 11 21 0.0 0.0 0.00 0.74 0.00 94 1011.8
20260504000942 11 19 0.0 0.0 0.00 0.74 0.00 94 1011.7
20260503235922 11 46 0.0 0.0 0.00 0.74 0.00 94 1011.7
20260503234850 11 45 0.0 0.0 0.00 0.74 0.00 94 1011.7
20260503233905 11 45 0.0 0.0 0.00 0.74 0.00 94 1011.7
20260503232911 11 45 0.0 0.0 0.00 0.74 0.00 94 1011.6
20260503231926 11 45 0.0 0.0 0.00 0.74 0.00 94 1011.4
20260503230934 11 135 0.0 1.6 0.00 0.74 0.00 94 1011.4
20260503225952 11 135 0.0 0.0 0.00 0.74 0.74 94 1011.3
20260503224948 11 135 0.0 0.0 0.00 0.74 0.74 94 1011.4
20260503222858 11 135 0.0 0.0 0.00 0.74 0.74 93 1011.3
20260503221916 11 135 0.0 0.0 0.00 0.74 0.74 93 1011.3
20260503220852 11 135 0.0 0.0 0.00 0.74 0.74 93 1011.2
20260503215842 11 135 0.0 0.0 0.00 0.74 0.74 93 1011.1
20260503213730 11 135 0.0 0.0 0.00 0.74 0.74 93 1011.0
20260503212747 11 135 0.0 0.0 0.00 0.74 0.74 93 1011.0
20260503211809 11 135 0.0 0.0 0.00 0.74 0.71 92 1010.9
20260503205646 11 135 0.0 0.0 0.20 0.74 0.71 92 1010.8
20260503204645 12 135 0.0 0.0 0.23 0.74 0.69 92 1010.8
20260503202544 12 135 0.0 0.0 0.36 0.64 0.56 91 1010.6
20260503195220 12 135 0.0 0.0 1.30 0.36 0.20 90 1010.2
20260503191913 12 49 0.0 0.0 0.00 0.43 0.08 88 1009.7
20260503190900 12 54 0.0 0.0 0.08 0.46 0.08 88 1009.7
20260503185919 13 42 0.0 4.8 0.20 0.53 0.08 87 1009.7
20260503183732 13 281 0.0 0.0 0.00 0.89 0.05 85 1009.5
20260503182754 13 300 0.0 0.0 0.00 0.89 0.05 84 1009.3
20260503181728 13 300 0.0 0.0 0.13 0.91 0.05 83 1009.2
20260503180709 14 300 0.0 6.4 0.64 0.89 0.03 82 1009.2
20260503175721 14 304 0.0 0.0 0.00 0.86 0.00 81 1009.2
20260503173555 15 309 0.0 0.0 0.00 0.89 0.00 77 1009.0
20260503172541 15 321 0.0 6.4 0.00 0.91 0.00 77 1008.9
20260503170411 16 254 0.0 0.0 0.00 0.97 0.00 75 1008.8
20260503160204 17 250 0.0 3.2 0.00 1.27 0.00 72 1008.6